Weather History for KLVM - March, 2014

Change the Weather History Date:

Sunday, March 30, 2014

  Actual Average Record
Temperature  
Mean Temperature 35 °F 38 °F  
Max Temperature 41 °F 51 °F 74 °F (1978)
Min Temperature 29 °F 27 °F -5 °F (1954)
Degree Days  
Heating Degree Days 30 26  
Month to date heating degree days 895 885  
Since 1 July heating degree days 6138 6233  
Cooling Degree Days 0 0  
Month to date cooling degree days 0 0  
Year to date cooling degree days 0 0  
Moisture  
Dew Point 31 °F    
Average Humidity 83    
Maximum Humidity 96    
Minimum Humidity 70    
Precipitation  
Precipitation 0.27 in 0.04 in 0.45 in (1980)
Month to date precipitation 1.98 0.80  
Year to date precipitation 3.08 1.79  
Sea Level Pressure  
Sea Level Pressure 29.78 in    
Wind  
Wind Speed 8 mph (ESE)    
Max Wind Speed 22 mph    
Max Gust Speed 26 mph    
Visibility 5 miles    
Events Fog , Rain , Snow    
T = Trace of Precipitation, MM = Missing Value Source: NWS Daily Summary

Daily Weather History Graph

Daily Weather History Graph

Search for Another Location

Airport or City:

Trip Planner

Search our weather history database for the weather conditions in past years. The results will help you decide how hot, cold, wet, or windy it might be!

Date:

Astronomy

Mar. 30, 2014 Rise Set
Actual Time 7:05 AM MDT 7:47 PM MDT
Civil Twilight 6:35 AM MDT 8:17 PM MDT
Nautical Twilight 6:00 AM MDT 8:53 PM MDT
Astronomical Twilight 5:23 AM MDT 9:30 PM MDT
Moon 6:53 AM MDT 8:05 PM MDT
Length of Visible Light 13h 42m
Length of Day
12h 42m
Waning Crescent, 0% of the Moon is Illuminated
Mar 30
Waning Crescent
Mar 30
New
Apr 7
First Quarter
Apr 15
Full
Apr 22
Last Quarter

Hourly Weather History & Observations

Time (MDT) Temp. Windchill Dew Point Humidity Pressure Visibility Wind Dir Wind Speed Gust Speed Precip Events Conditions
12:53 AM 39.9 °F 31.4 °F 32.0 °F 73% 29.75 in 10.0 mi West 16.1 mph 28.8 mph N/A   Overcast
1:20 AM 41.0 °F 32.2 °F 30.9 °F 67% 29.76 in 10.0 mi SW 18.4 mph - N/A   Overcast
1:53 AM 39.0 °F 31.4 °F 32.0 °F 76% 29.77 in 10.0 mi West 12.7 mph - N/A   Overcast
2:53 AM 36.0 °F 27.1 °F 30.9 °F 82% 29.78 in 10.0 mi NNW 13.8 mph - N/A   Overcast
3:53 AM 39.9 °F 32.1 °F 30.0 °F 68% 29.75 in 10.0 mi West 13.8 mph 23.0 mph N/A   Overcast
4:53 AM 37.0 °F 29.3 °F 30.0 °F 76% 29.74 in 10.0 mi NW 11.5 mph - N/A   Overcast
5:53 AM 36.0 °F 33.3 °F 30.0 °F 79% 29.75 in 10.0 mi West 3.5 mph - N/A   Overcast
6:53 AM 35.1 °F 31.0 °F 30.9 °F 85% 29.76 in 10.0 mi NNE 4.6 mph - N/A   Overcast
7:53 AM 35.1 °F - 32.0 °F 89% 29.76 in 10.0 mi Calm Calm - N/A   Overcast
8:53 AM 36.0 °F 33.3 °F 33.1 °F 89% 29.74 in 10.0 mi NNW 3.5 mph - 0.00 in   Overcast
9:53 AM 37.0 °F 34.5 °F 34.0 °F 89% 29.73 in 8.0 mi NNW 3.5 mph - N/A   Overcast
10:01 AM 37.0 °F 34.5 °F 34.0 °F 89% 29.70 in 9.0 mi Variable 3.5 mph - N/A   Overcast
10:30 AM 37.0 °F - 34.0 °F 89% 29.70 in 10.0 mi Calm Calm - 0.00 in Rain Light Rain
10:53 AM 37.0 °F 34.5 °F 34.0 °F 89% 29.73 in 8.0 mi NW 3.5 mph - 0.01 in   Overcast
11:09 AM 37.0 °F 33.3 °F 34.0 °F 89% 29.70 in 8.0 mi NNW 4.6 mph - 0.00 in   Overcast
11:46 AM 37.0 °F 33.3 °F 34.0 °F 89% 29.69 in 6.0 mi North 4.6 mph - 0.01 in Snow Light Snow
11:53 AM 37.0 °F - 34.0 °F 89% 29.73 in 7.0 mi Calm Calm - 0.01 in   Overcast
12:07 PM 37.9 °F 35.5 °F 34.0 °F 86% 29.69 in 8.0 mi ENE 3.5 mph - 0.01 in Rain Light Rain
12:53 PM 39.0 °F 36.8 °F 34.0 °F 82% 29.70 in 10.0 mi North 3.5 mph - 0.01 in Rain Light Rain
1:02 PM 37.9 °F 35.5 °F 34.0 °F 86% 29.68 in 10.0 mi WNW 3.5 mph - 0.00 in Rain Light Rain
1:53 PM 37.0 °F 31.0 °F 34.0 °F 89% 29.72 in 3.0 mi NNE 8.1 mph - 0.03 in Snow Light Snow
2:01 PM 36.0 °F 29.0 °F 33.1 °F 89% 29.69 in 1.8 mi East 9.2 mph - 0.01 in Snow Light Snow
2:05 PM 34.0 °F 28.8 °F 32.0 °F 92% 29.69 in 0.8 mi East 5.8 mph - 0.01 in Snow Light Snow
2:53 PM 34.0 °F 26.0 °F 32.0 °F 92% 29.75 in 0.5 mi SE 10.4 mph - 0.05 in Fog , Snow Snow
3:26 PM 34.0 °F 26.0 °F 32.0 °F 92% 29.70 in 1.0 mi SE 10.4 mph - 0.03 in Snow Light Snow
3:29 PM 34.0 °F 26.6 °F 32.0 °F 92% 29.70 in 0.8 mi SE 9.2 mph - 0.03 in Snow Light Snow
3:53 PM 34.0 °F 25.5 °F 32.0 °F 92% 29.75 in 0.5 mi SE 11.5 mph - 0.05 in Fog , Snow Snow
4:39 PM 34.0 °F 31.0 °F 32.0 °F 92% 29.72 in 1.0 mi South 3.5 mph - 0.03 in Snow Light Snow
4:46 PM 34.0 °F 31.0 °F 32.0 °F 92% 29.72 in 0.8 mi South 3.5 mph - 0.03 in Snow Light Snow
4:51 PM 33.8 °F 30.8 °F 32.0 °F 93% 29.72 in 1.0 mi South 3.5 mph - 0.03 in Snow Light Snow
4:53 PM 34.0 °F 31.0 °F 32.0 °F 92% 29.77 in 1.0 mi South 3.5 mph - 0.03 in Snow Light Snow
5:02 PM 34.0 °F - 32.0 °F 92% 29.73 in 0.8 mi Calm Calm - 0.01 in Snow Light Snow
5:18 PM 34.0 °F 28.8 °F 32.0 °F 92% 29.73 in 1.0 mi South 5.8 mph - 0.02 in Snow Light Snow
5:25 PM 34.0 °F 27.2 °F 32.0 °F 92% 29.73 in 1.2 mi SE 8.1 mph - 0.02 in Snow Light Snow
5:35 PM 35.1 °F 25.9 °F 32.0 °F 89% 29.74 in 3.0 mi ESE 13.8 mph - 0.03 in Snow Light Snow
5:44 PM 35.1 °F 25.5 °F 32.0 °F 89% 29.74 in 6.0 mi ESE 15.0 mph - 0.03 in Snow Light Snow
5:53 PM 35.1 °F 25.2 °F 30.9 °F 85% 29.79 in 5.0 mi ESE 16.1 mph 21.9 mph 0.03 in Snow Light Snow
6:12 PM 35.1 °F 24.8 °F 30.0 °F 82% 29.74 in 2.5 mi ESE 17.3 mph 24.2 mph 0.00 in Snow Light Snow
6:40 PM 34.0 °F 23.0 °F 32.0 °F 92% 29.76 in 1.5 mi ESE 18.4 mph - 0.00 in Snow Light Snow
6:53 PM 34.0 °F 24.2 °F 28.0 °F 79% 29.83 in 1.8 mi SE 15.0 mph 21.9 mph 0.00 in Snow Light Snow
7:00 PM 34.0 °F 25.0 °F 28.9 °F 82% 29.77 in 2.5 mi ESE 12.7 mph - 0.00 in Snow Light Snow
7:07 PM 34.0 °F 25.5 °F 30.0 °F 85% 29.78 in 5.0 mi ESE 11.5 mph - 0.00 in Snow Light Snow
7:40 PM 33.1 °F 23.9 °F 28.0 °F 82% 29.80 in 8.0 mi ESE 12.7 mph - 0.00 in   Overcast
7:53 PM 33.1 °F 23.0 °F 28.0 °F 82% 29.87 in 7.0 mi ESE 15.0 mph - 0.00 in Snow Light Snow
8:38 PM 32.0 °F 22.1 °F 28.9 °F 88% 29.84 in 2.5 mi ESE 13.8 mph - 0.00 in Snow Light Snow
8:53 PM 30.9 °F 22.2 °F 28.9 °F 92% 29.92 in 2.0 mi ESE 10.4 mph - 0.00 in Snow Light Snow
9:08 PM 30.9 °F 22.2 °F 28.9 °F 92% 29.86 in 3.0 mi ESE 10.4 mph - 0.00 in Snow Light Snow
9:11 PM 30.9 °F 22.2 °F 28.9 °F 92% 29.86 in 2.5 mi ESE 10.4 mph - 0.00 in Snow Light Snow
9:20 PM 30.9 °F 21.7 °F 28.9 °F 92% 29.86 in 2.0 mi ESE 11.5 mph - 0.00 in Snow Light Snow
9:53 PM 30.9 °F 23.5 °F 28.0 °F 89% 29.95 in 1.8 mi ESE 8.1 mph - 0.00 in Snow Light Snow
10:14 PM 30.9 °F 23.5 °F 28.9 °F 92% 29.88 in 1.0 mi SE 8.1 mph - 0.01 in Snow Light Snow
10:25 PM 30.9 °F 23.5 °F 27.0 °F 85% 29.89 in 2.0 mi ESE 8.1 mph - 0.01 in Snow Light Snow
10:41 PM 30.9 °F 22.2 °F 27.0 °F 85% 29.89 in 2.0 mi SE 10.4 mph - 0.01 in Snow Light Snow
10:53 PM 30.0 °F 21.1 °F 27.0 °F 88% 29.96 in 1.5 mi SE 10.4 mph - 0.01 in Snow Light Snow
11:01 PM 30.0 °F 21.1 °F 27.0 °F 88% 29.89 in 1.0 mi SE 10.4 mph - 0.01 in Snow Light Snow
11:14 PM 30.0 °F 20.5 °F 27.0 °F 88% 29.90 in 0.8 mi SE 11.5 mph - 0.01 in Snow Light Snow
11:28 PM 30.0 °F 21.1 °F 27.0 °F 88% 29.90 in 1.0 mi SE 10.4 mph - 0.01 in Snow Light Snow
11:53 PM 30.0 °F 21.1 °F 27.0 °F 88% 29.98 in 0.8 mi SE 10.4 mph - 0.02 in Snow Light Snow